Terminal Aerodrome Forecast
Issued by NWS Grand Forks, ND

Home | Current Version | Previous Version | Text Only | Print | Product List | Glossary On
Versions: 1 2 3 4 5 6 7 8 9 10 11 12 13 14
000
FTUS43 KFGF 241100
TAFFAR
TAF
KFAR 241123Z 2412/2512 16008KT P6SM SCT250
     FM241900 14015KT P6SM BKN120
     FM242300 15011KT P6SM BKN080=

USA.gov is the U.S. government's official web portal to all federal, state and local government web resources and services.